Weather in Ciudad Ojeda

Venezuela     10°11′51″N   71°18′37″W
temp.,
°C
wind,
m/s
gust,
m/s
humid.,
%
clouds,
%
prec.,
mm/h
press.,
hPa
HPBL,
m
2 july, sat
sat223:00+26ne23785 0.0 100963
02:00+25e11815 0.0 100843
05:00+24ene1184100 0.3 100929
08:00+26se2377100 0.4 1011234
11:00+31sse5564100 0.2 10111237
14:00+32ssw4459100 1.0 10091101
17:00+31wsw226054 0.3 1007931
20:00+27n247739 0.4 1008107
3 july, sun
sun323:00+24n379510 1.0 1010171
02:00+24nne22947 1.1 100860
05:00+23sse119369 0.0 100934
08:00+26sse368759 0.2 1010332
11:00+31se5563100 0.0 10111137
14:00+31ssw3364100 0.0 1009933
17:00+30ssw3366100 0.3 1008481
20:00+27n1179100 1.0 101029
4 july, mon
mon423:00+25n229187 0.1 101145
02:00+25ene1188100 0.6 101040
05:00+25ese118796 0.6 101020
08:00+27se227737 0.9 1011200
11:00+32sw325954 0.2 10111369
14:00+33wsw32545 1.2 1009975
17:00+30nw246747 1.0 1008515
20:00+25s2295100 9.1 100963
5 july, tue
tue523:00+24w0094100 7.1 101025
02:00+24ne2294100 7.1 100961
05:00+24ne1192100 0.0 100930
08:00+26se11865 0.0 1011137
11:00+31ssw226213 0.0 10101065
14:00+32wsw43587 0.0 10081181
17:00+32w235714 0.0 1006962
20:00+25n388944 1.1 1009162
6 july, wed
wed623:00+25wnw119184 0.3 101040
02:00+24se229498 0.3 100884
05:00+24se3695100 2.3 1009167
08:00+26se2488100 3.8 1010220
11:00+29ssw3472100 1.9 1011880
14:00+29ssw2267100 2.1 1010882
17:00+29w1170100 0.0 1007489
20:00+26n3782100 0.1 1009279